Theta_e
308 308 308 308 310 311 312 313 313 313 313 313 313 313 315 315 314 317 324 319 320 319 319 320 323 323 324 325 327 325 324 326 330 331 332 331 331 334 332 334 332 330 344 337 344
308 307 308 309 310 311 312 313 313 313 313 313 313 314 315 316 318 323 319 319 319 319 320 323 325 324 325 325 326 325 326 327 329 329 330 329 328 329 329 331 329 329 345 344 342
308 307 309 310 311 312 313 313 313 313 313 313 313 314 316 316 323 323 319 319 319 320 322 326 325 326 325 326 326 326 326 328 328 327 327 327 326 327 328 328 328 325 330 337 339
307 308 310 311 312 312 313 313 313 313 313 313 314 316 317 320 324 321 319 319 320 321 324 325 324 324 325 324 325 324 327 326 325 324 324 324 325 326 325 324 326 329 331 332 334
308 309 311 312 312 313 313 313 313 313 313 313 314 315 319 323 323 320 319 321 320 323 325 326 325 326 324 325 324 324 325 324 324 323 324 324 324 326 325 325 326 328 329 330 331
309 310 311 312 312 313 313 313 313 313 313 312 314 315 322 323 321 321 321 321 322 323 324 324 326 326 325 324 324 326 324 324 324 324 323 324 323 325 326 325 326 326 327 327 328
310 311 312 312 312 313 313 313 312 312 312 312 313 316 323 324 321 322 322 323 322 323 324 324 324 324 326 325 325 324 323 323 323 323 323 323 324 325 326 326 327 327 328 329 333
310 311 312 312 312 313 312 312 312 312 313 313 314 318 327 321 322 323 324 324 323 323 323 323 323 324 325 327 324 324 325 325 325 324 323 323 324 327 326 326 327 328 328 331 333
309 310 311 311 312 312 311 312 312 312 314 313 319 324 325 320 323 323 323 324 324 324 324 323 324 325 325 323 324 325 325 326 327 326 325 324 327 328 327 327 328 328 330 331 332
309 310 310 311 311 311 315 318 317 314 316 316 321 323 324 324 323 323 323 323 325 325 325 326 326 326 325 325 325 327 327 327 327 326 325 324 328 329 328 327 328 329 330 331 331
307 309 310 310 311 315 318 320 319 320 321 323 325 326 324 323 322 324 323 324 324 325 326 327 325 327 328 327 326 326 326 326 325 327 326 326 324 329 329 327 328 328 329 329 330
307 308 309 310 316 319 319 326 326 326 326 323 324 325 324 323 324 325 325 326 325 325 326 326 325 327 325 324 324 323 324 325 325 326 326 325 325 325 329 328 328 327 327 327 327
309 309 310 316 319 320 325 324 323 323 328 323 324 324 324 323 325 325 326 326 326 325 325 325 326 324 324 324 325 325 326 326 326 326 326 326 326 326 329 328 327 326 325 325 325
311 312 317 319 320 325 325 323 323 325 331 324 323 325 325 325 325 324 325 326 327 327 326 326 325 324 324 325 325 325 324 324 325 323 323 324 325 326 330 329 327 326 325 325 325
312 317 320 320 322 327 327 324 324 326 341 324 324 325 325 325 325 325 324 327 328 327 325 328 326 325 325 326 325 324 321 320 320 320 321 321 321 323 331 330 329 327 326 325 324
314 318 319 321 321 325 323 324 324 328 333 327 326 325 324 324 325 326 325 326 326 326 327 327 326 324 325 324 324 323 321 322 322 322 324 324 323 326 329 328 326 327 326 325 324
314 316 320 322 326 325 324 324 327 328 330 328 325 324 325 325 325 326 327 328 330 331 330 329 328 325 324 325 323 323 322 323 327 327 326 323 323 324 327 326 325 323 323 323 322
314 314 321 321 324 326 324 327 330 330 328 327 325 325 325 326 326 327 327 328 328 329 328 328 329 328 326 324 322 320 321 320 327 326 322 322 322 328 327 324 323 323 322 321 321
316 319 322 325 326 325 329 330 329 333 328 327 326 326 325 327 327 328 329 329 330 329 328 330 329 325 324 322 320 321 322 321 321 322 324 323 327 326 325 324 323 321 321 321 322
322 330 329 327 326 326 329 331 333 330 328 327 327 326 328 328 329 327 328 330 329 326 326 327 330 327 324 322 320 320 320 320 329 327 323 320 321 325 324 323 322 320 320 321 322
326 333 329 327 325 328 331 329 329 327 327 328 329 331 330 329 329 329 328 329 328 327 325 327 330 328 324 323 321 324 324 322 324 324 326 325 323 324 324 322 321 321 320 320 320
326 329 328 326 327 331 332 329 320 326 327 328 329 330 330 330 330 327 326 331 326 325 326 327 330 330 327 322 321 318 318 321 327 326 326 326 326 324 323 322 322 321 319 318 317
325 324 328 326 328 330 330 330 326 325 326 327 328 328 328 328 327 327 326 326 325 324 329 330 328 333 329 325 324 324 323 322 324 326 327 333 330 324 324 322 320 319 317 316 316
324 326 325 327 325 329 332 330 327 325 327 327 328 327 326 326 325 326 326 325 324 325 319 325 325 328 331 327 324 322 320 321 322 334 326 325 324 322 322 320 319 318 317 315 315
326 324 330 330 329 328 327 330 329 328 326 326 326 326 326 327 327 326 326 326 324 323 321 324 326 325 325 324 322 320 318 318 319 320 325 322 322 321 320 319 318 318 316 315 315
321 325 324 325 323 329 325 328 328 328 327 326 325 326 326 326 328 328 326 326 326 325 325 327 327 323 322 322 322 321 321 321 319 320 321 322 322 319 319 317 317 316 315 316 315
320 320 322 320 323 325 323 325 327 327 327 326 326 326 326 325 325 324 324 324 327 326 327 326 326 327 327 323 324 327 324 323 321 318 320 321 319 318 318 317 318 317 315 315 315
Wind_Speed
3 2 3 4 4 3 2 2 2 4 6 8 11 13 15 11 8 7 7 4 4 10 11 12 14 15 15 16 20 13 12 14 15 13 7 5 1 9 5 11 7 7 20 17 13
2 3 4 5 4 2 2 2 3 5 8 10 12 14 12 10 9 17 1 4 5 6 8 14 14 15 13 19 9 10 12 14 3 15 8 10 10 13 10 13 16 16 24 25 14
2 4 5 4 3 2 2 3 5 6 9 12 13 14 9 9 11 6 1 5 6 5 12 20 15 7 17 13 12 12 9 9 9 12 13 13 4 16 16 13 11 9 12 10 12
3 5 4 3 2 2 3 5 6 8 10 13 13 12 12 6 3 7 1 6 8 9 15 20 11 15 14 7 1 15 6 12 11 10 8 4 12 16 9 9 8 14 9 6 6
4 4 3 2 2 2 4 6 8 10 11 12 12 14 9 9 5 4 2 5 8 14 18 17 14 12 9 3 2 13 6 5 4 0 7 8 10 13 7 8 10 7 4 11 16
4 3 2 2 2 4 6 8 9 11 12 12 12 15 8 15 5 1 4 6 11 10 9 13 12 10 11 5 5 10 2 4 3 8 2 4 3 3 6 2 6 5 7 11 12
4 3 2 2 4 6 8 9 11 12 12 11 11 12 12 6 1 4 6 4 5 8 11 6 13 10 9 2 6 5 7 8 6 4 4 7 8 6 1 2 4 6 8 10 17
4 3 3 4 6 7 9 11 11 12 12 11 13 8 7 2 7 6 5 3 3 4 8 8 8 11 13 6 4 12 13 13 14 7 7 2 4 11 2 1 5 5 8 13 17
3 4 4 5 7 8 10 11 11 11 12 11 10 9 4 3 9 1 6 9 2 4 3 6 9 11 6 10 11 10 11 11 10 11 10 8 6 9 2 3 4 4 8 11 13
4 5 6 6 7 9 11 12 8 10 10 11 16 12 6 3 4 4 2 7 7 4 8 10 8 10 12 11 8 11 6 13 12 13 6 8 9 13 6 2 4 5 7 9 10
4 5 6 7 8 10 9 5 6 5 14 12 5 7 4 5 4 6 2 7 5 8 11 10 9 9 11 13 12 12 13 12 12 8 1 8 15 11 12 3 6 4 7 7 8
3 5 6 6 8 8 10 8 6 12 7 12 8 4 1 4 3 2 9 8 4 10 14 6 12 8 8 7 11 13 15 13 12 3 4 7 16 10 12 8 3 2 7 6 8
3 4 5 6 9 12 13 6 7 7 6 10 10 10 8 9 4 6 8 6 9 7 5 9 9 7 6 8 7 12 14 11 13 16 12 10 16 14 15 11 9 4 6 6 5
3 5 5 7 8 12 3 4 5 4 5 13 8 6 5 7 3 4 4 8 4 7 5 4 8 8 7 3 8 10 13 14 13 12 12 16 13 8 18 12 10 9 6 4 4
4 5 5 6 14 11 4 6 8 3 5 14 12 8 9 9 9 5 1 6 8 3 5 6 1 5 9 11 9 12 14 13 13 12 13 15 10 6 16 12 14 12 8 3 1
3 6 6 9 12 6 5 5 4 5 6 9 9 8 10 9 7 5 5 2 5 9 6 6 5 4 7 7 9 9 12 15 14 11 11 17 14 3 6 6 6 10 7 4 1
2 8 9 11 9 7 8 6 5 8 6 8 11 10 13 8 9 5 7 9 7 6 9 6 12 7 4 9 4 5 10 8 4 8 9 7 2 7 12 12 12 10 10 9 9
3 7 7 10 9 8 8 6 7 12 11 6 3 10 11 11 6 7 5 9 9 4 9 11 6 4 6 3 6 10 4 6 7 8 13 18 7 6 15 10 6 6 8 7 12
6 6 9 10 4 5 7 8 10 11 6 2 7 9 10 6 6 5 9 10 6 9 6 8 3 5 2 4 4 11 4 7 5 10 10 11 10 10 7 3 2 7 7 11 13
9 13 13 6 2 6 6 13 13 2 7 4 8 10 11 9 8 9 7 6 3 5 4 6 8 8 8 3 5 5 7 4 5 3 7 10 12 7 5 11 13 13 13 13 13
5 5 8 4 4 6 9 11 5 9 5 3 9 4 7 7 2 6 8 8 2 2 5 9 4 7 1 8 7 6 7 6 0 4 6 9 5 10 7 10 11 11 14 13 13
7 5 9 5 6 7 12 12 2 2 4 5 6 8 7 8 5 8 4 9 5 5 6 6 4 8 13 9 3 7 10 9 3 7 9 9 10 4 3 7 11 12 14 18 18
5 9 7 7 7 8 6 4 0 3 6 1 4 2 5 5 3 6 6 6 5 1 4 6 3 4 8 9 4 5 7 8 7 5 11 9 9 11 16 14 13 14 16 16 16
5 5 6 5 8 9 12 4 7 2 4 2 4 1 5 7 5 6 2 4 5 5 4 4 5 9 8 15 12 7 9 10 10 6 12 14 18 17 16 15 15 15 16 19 18
4 3 4 4 2 6 6 11 8 8 8 7 5 8 7 5 8 8 8 11 8 8 3 3 7 12 14 16 15 14 15 15 14 15 13 14 16 16 15 16 16 16 17 20 18
4 5 8 10 9 8 7 8 13 11 7 7 8 10 5 6 8 9 8 4 6 7 5 7 7 9 13 14 16 18 14 14 16 14 15 15 14 15 16 16 16 17 19 18 18
14 11 5 8 9 8 11 12 12 8 6 6 7 5 7 6 2 5 6 6 7 5 6 6 8 9 12 13 16 8 14 8 6 11 12 11 14 15 15 15 16 17 17 17 18
Wind_Direction
267 239 211 189 182 193 220 238 287 310 316 318 319 321 317 298 277 243 246 352 276 282 269 273 268 249 246 255 265 275 272 280 357 56 70 81 357 82 28 108 58 75 97 139 173
251 215 188 180 182 195 223 262 296 312 317 318 320 326 321 312 286 257 69 343 316 280 263 243 234 221 241 240 244 242 267 292 15 20 72 100 14 33 10 57 48 59 128 141 145
223 191 178 178 189 209 252 284 302 314 318 319 322 327 310 300 279 119 25 331 326 301 260 277 286 250 249 240 230 240 278 41 40 9 1 56 69 43 20 42 38 16 48 123 151
188 178 178 188 201 241 281 294 305 314 318 321 324 316 304 294 350 92 350 314 306 285 264 262 251 248 258 232 356 270 35 3 49 22 332 6 79 71 34 44 27 50 6 21 16
169 174 186 205 242 281 294 300 306 312 317 325 323 321 316 258 79 115 281 276 276 270 250 257 253 261 273 15 308 268 99 326 59 289 3 35 73 95 69 36 31 56 22 17 12
163 179 202 242 283 296 299 302 304 307 314 323 322 312 271 278 110 212 264 242 259 270 298 296 321 354 309 285 268 5 358 198 151 129 251 198 77 57 88 43 84 19 26 26 13
171 190 220 266 292 299 300 300 300 304 307 312 312 322 284 293 291 251 242 303 310 288 288 267 316 298 343 270 296 282 265 216 202 172 220 285 175 178 113 92 64 25 39 41 39
193 214 244 279 292 295 299 300 298 297 296 299 300 296 269 27 314 247 278 190 279 268 279 314 274 285 283 354 273 259 232 234 151 161 136 207 296 101 111 36 76 52 42 56 52
225 239 257 275 287 294 297 294 292 287 285 288 292 217 245 136 233 70 304 320 360 263 308 306 268 257 225 264 247 209 253 230 156 184 152 179 141 113 130 78 57 46 57 58 52
239 246 256 268 281 289 287 283 266 273 266 262 261 278 188 199 88 285 288 275 271 215 238 226 236 235 221 222 266 335 281 271 154 166 168 251 161 146 129 138 113 66 65 60 57
241 243 253 265 279 286 293 263 217 213 236 260 154 265 96 90 205 228 329 275 248 262 271 226 284 280 16 0 349 323 310 316 314 119 154 284 290 147 128 224 146 104 84 88 83
238 238 252 267 277 279 279 256 34 319 256 224 278 300 29 210 209 172 223 242 198 255 230 263 246 45 345 351 329 317 302 292 288 218 165 287 276 241 147 173 97 113 114 78 72
243 228 244 267 277 272 234 344 305 308 267 172 215 218 193 224 236 97 299 305 304 246 259 267 24 2 2 325 347 316 343 304 335 337 316 256 250 256 151 136 129 119 102 119 85
235 220 242 281 283 237 201 309 314 346 271 165 195 225 167 237 166 3 340 304 267 0 345 360 29 333 312 348 26 303 11 335 315 302 287 303 297 279 147 159 163 157 172 104 79
212 218 250 250 300 285 21 320 326 258 276 135 178 117 173 218 105 149 184 277 299 69 277 44 2 333 301 22 5 311 335 302 291 284 287 283 268 259 142 173 180 182 175 171 119
227 218 240 253 263 294 303 320 257 237 260 154 143 204 206 217 167 126 208 269 350 297 256 319 65 298 355 326 275 304 288 293 270 258 262 262 230 109 133 176 100 145 165 145 283
298 220 245 291 312 341 314 252 224 251 102 153 182 194 202 183 157 210 211 214 249 307 275 210 227 123 351 317 354 273 333 316 290 236 237 50 319 308 96 65 49 26 10 13 343
314 229 249 264 301 327 276 231 255 244 226 97 228 182 218 181 201 169 258 260 226 282 298 298 183 150 118 357 334 295 336 291 320 315 326 335 304 81 77 79 64 8 354 311 283
292 248 242 231 290 299 265 227 231 324 26 102 228 258 216 126 249 189 243 257 62 8 333 330 19 110 68 355 346 9 305 31 327 282 274 275 76 94 89 102 269 349 343 316 17
318 275 242 160 258 271 247 261 297 22 341 322 260 224 242 209 176 225 247 47 86 30 359 298 299 302 121 315 192 276 342 273 196 286 300 316 325 64 40 9 348 336 323 313 4
283 256 127 179 220 252 245 247 215 84 325 304 292 310 290 325 334 314 310 115 64 48 319 303 292 282 330 227 263 191 228 216 360 308 293 294 298 71 22 345 332 324 338 351 331
300 265 132 180 240 237 242 344 63 137 197 239 319 333 327 350 328 298 293 57 56 17 292 48 330 288 281 83 29 298 290 325 299 278 289 320 291 80 312 294 351 348 350 342 334
292 300 161 217 248 256 218 220 261 203 256 259 243 340 42 297 300 258 316 88 72 346 15 358 238 291 280 201 145 255 270 239 236 266 264 280 281 299 329 349 353 350 341 333 325
280 285 193 192 263 292 297 250 185 194 312 263 296 68 253 261 235 278 232 126 106 50 42 346 274 267 262 308 320 273 260 245 243 252 265 265 285 302 332 347 347 342 339 327 325
252 303 18 297 21 294 259 295 267 168 214 209 240 242 253 256 263 227 233 134 171 154 201 241 263 271 270 278 289 292 284 280 273 276 282 292 299 319 357 348 336 342 336 323 348
329 350 347 300 295 294 279 266 269 273 180 220 226 276 228 252 269 309 354 312 272 160 207 201 274 282 281 280 273 268 276 288 279 280 280 287 303 355 345 340 334 335 324 354 340
8 329 287 296 279 254 255 247 247 260 290 218 302 237 237 256 328 8 351 321 299 309 239 221 261 287 287 296 298 274 273 329 359 351 339 318 329 332 334 331 325 330 329 342 324